Seabourn Odyssey — C6XC6 — position and weather

sailwx.info

Track history (hours):
 
Tides and Currents Weather Stations Pressure Air Temp Water Temp Dewpoint Dewpoint Depression Visibility Wind Speed Wind Dir Waves Ship Positions

Seabourn Odyssey

Last reported at 2018-Feb-21 23:06 UTC. Time now 2018-Feb-22 07:12 UTC.
Position N 14°23' W 061°14'.

Length 198 m; draft 6.7 m.

Type: Ship. MMSI: 309416000.

Date/timePositionNaut miles runAvg speedWind from/ knotsBaromVisibWave heightAir tempDewpointWater temp
2018-Feb-21 23:06N 14°23' W 061°14'416.3
2018-Feb-21 22:52N 14°27' W 061°13'616.8
2018-Feb-21 22:30N 14°32' W 061°09'611.5
2018-Feb-21 21:59N 14°36' W 061°05'0 0.0
2018-Feb-21 11:29N 14°36' W 061°04'12612.6
2018-Feb-21 01:29N 16°19' W 062°20'816.0
2018-Feb-21 01:00N 16°26' W 062°24'816.1
2018-Feb-21 00:29N 16°33' W 062°28'816.8
2018-Feb-21 00:00N 16°40' W 062°31'2714.9
2018-Feb-20 22:13N 17°05' W 062°42'4 0.3
2018-Feb-20 09:09N 17°08' W 062°39'1 2.8
2018-Feb-20 08:37N 17°07' W 062°40'1 5.1
2018-Feb-20 08:26N 17°06' W 062°41'2 4.3
2018-Feb-20 07:58N 17°05' W 062°43'23 7.2
2018-Feb-20 04:42N 16°43' W 062°33'2 8.5
2018-Feb-20 04:30N 16°42' W 062°32'5 8.5
2018-Feb-20 03:56N 16°37' W 062°30'7 8.6
2018-Feb-20 03:07N 16°32' W 062°25'1 8.7
2018-Feb-20 02:58N 16°31' W 062°24'7 9.6
2018-Feb-20 02:13N 16°26' W 062°19'2 9.5
2018-Feb-20 02:00N 16°25' W 062°17'  
2018-Feb-15 07:23N 14°30' W 061°23'411.0
2018-Feb-15 07:00N 14°34' W 061°25'87 4.0
2018-Feb-14 09:20N 15°59' W 061°46'2310.8
2018-Feb-14 07:11N 16°18' W 062°00'313.3
2018-Feb-14 06:59N 16°20' W 062°01'1113.7
2018-Feb-14 06:11N 16°31' W 061°59'315.9
2018-Feb-14 06:00N 16°33' W 061°57'815.7
2018-Feb-14 05:30N 16°39' W 061°52'715.1
2018-Feb-14 05:00N 16°47' W 061°52'815.9
2018-Feb-14 04:30N 16°54' W 061°55'816.0
2018-Feb-14 04:00N 17°01' W 061°59'714.7
2018-Feb-14 03:30N 17°08' W 061°59'611.5
2018-Feb-14 03:00N 17°08' W 061°53'2 3.3
2018-Feb-14 02:29N 17°07' W 061°51'0 0.0
2018-Feb-14 01:59N 17°07' W 061°51'0 0.0
2018-Feb-14 01:29N 17°07' W 061°51'0 0.0
2018-Feb-14 00:59N 17°07' W 061°51'0 0.0
2018-Feb-14 00:29N 17°07' W 061°51'0 0.0
2018-Feb-13 23:59N 17°07' W 061°51'0 0.0
2018-Feb-13 23:29N 17°07' W 061°51'0 0.0
2018-Feb-13 22:59N 17°07' W 061°51'0 0.0
2018-Feb-13 22:29N 17°07' W 061°51'0 0.0
2018-Feb-13 21:59N 17°07' W 061°51'0 0.0
2018-Feb-13 21:29N 17°07' W 061°51'0 0.0
2018-Feb-13 20:59N 17°07' W 061°51'0 0.0
2018-Feb-13 20:26N 17°07' W 061°51'0 0.0
2018-Feb-13 19:59N 17°07' W 061°51'0 0.0
2018-Feb-13 19:29N 17°07' W 061°51'0 0.0
2018-Feb-13 18:59N 17°07' W 061°51'0 0.0
2018-Feb-13 18:29N 17°07' W 061°51'0 0.0
2018-Feb-13 17:59N 17°07' W 061°51'0 0.0
2018-Feb-13 17:29N 17°07' W 061°51'0 0.0
2018-Feb-13 16:59N 17°07' W 061°51'0 0.0
2018-Feb-13 16:29N 17°07' W 061°51'0 0.0
2018-Feb-13 15:59N 17°07' W 061°51'0 0.0
2018-Feb-13 15:29N 17°07' W 061°51'0 0.0
2018-Feb-13 14:59N 17°07' W 061°51'0 0.0
2018-Feb-13 14:29N 17°07' W 061°51'0 0.0
2018-Feb-13 13:59N 17°07' W 061°51'0 0.0
2018-Feb-13 13:29N 17°07' W 061°51'0 0.0
2018-Feb-13 12:59N 17°07' W 061°51'0 0.0
2018-Feb-13 12:29N 17°07' W 061°51'0 0.0
2018-Feb-13 11:59N 17°07' W 061°51'0 0.3
2018-Feb-13 11:30N 17°07' W 061°51'2 4.9
2018-Feb-13 11:00N 17°08' W 061°54'510.6
2018-Feb-13 10:30N 17°10' W 061°59'510.8
2018-Feb-13 10:00N 17°08' W 062°04'31 5.0
2018-Feb-13 03:54N 16°55' W 062°33'3 6.8
2018-Feb-13 03:29N 16°54' W 062°36'21 1.3
2018-Feb-12 10:40N 17°14' W 062°43'515.3
2018-Feb-12 10:19N 17°09' W 062°44'3016.7
2018-Feb-12 08:33N 16°42' W 062°32'116.5
2018-Feb-12 08:30N 16°41' W 062°32'916.4
2018-Feb-12 07:58N 16°33' W 062°28'14316.5
2018-Feb-11 23:19N 14°35' W 061°05'  
Track history (hours):
 
Tides and Currents Weather Stations Pressure Air Temp Water Temp Dewpoint Dewpoint Depression Visibility Wind Speed Wind Dir Waves Ship Positions

Seabourn Odyssey

Last reported at 2018-Feb-21 23:06 UTC. Time now 2018-Feb-22 07:12 UTC.
Position N 14°23' W 061°14'.

Length 198 m; draft 6.7 m.

Type: Ship. MMSI: 309416000.

Date/timePositionNaut miles runAvg speedWind from/ knotsBaromVisibWave heightAir tempDewpointWater temp
2018-Feb-21 23:06N 14°23' W 061°14'416.3
2018-Feb-21 22:52N 14°27' W 061°13'616.8
2018-Feb-21 22:30N 14°32' W 061°09'611.5
2018-Feb-21 21:59N 14°36' W 061°05'0 0.0
2018-Feb-21 11:29N 14°36' W 061°04'12612.6
2018-Feb-21 01:29N 16°19' W 062°20'816.0
2018-Feb-21 01:00N 16°26' W 062°24'816.1
2018-Feb-21 00:29N 16°33' W 062°28'816.8
2018-Feb-21 00:00N 16°40' W 062°31'2714.9
2018-Feb-20 22:13N 17°05' W 062°42'4 0.3
2018-Feb-20 09:09N 17°08' W 062°39'1 2.8
2018-Feb-20 08:37N 17°07' W 062°40'1 5.1
2018-Feb-20 08:26N 17°06' W 062°41'2 4.3
2018-Feb-20 07:58N 17°05' W 062°43'23 7.2
2018-Feb-20 04:42N 16°43' W 062°33'2 8.5
2018-Feb-20 04:30N 16°42' W 062°32'5 8.5
2018-Feb-20 03:56N 16°37' W 062°30'7 8.6
2018-Feb-20 03:07N 16°32' W 062°25'1 8.7
2018-Feb-20 02:58N 16°31' W 062°24'7 9.6
2018-Feb-20 02:13N 16°26' W 062°19'2 9.5
2018-Feb-20 02:00N 16°25' W 062°17'  
2018-Feb-15 07:23N 14°30' W 061°23'411.0
2018-Feb-15 07:00N 14°34' W 061°25'87 4.0
2018-Feb-14 09:20N 15°59' W 061°46'2310.8
2018-Feb-14 07:11N 16°18' W 062°00'313.3
2018-Feb-14 06:59N 16°20' W 062°01'1113.7
2018-Feb-14 06:11N 16°31' W 061°59'315.9
2018-Feb-14 06:00N 16°33' W 061°57'815.7
2018-Feb-14 05:30N 16°39' W 061°52'715.1
2018-Feb-14 05:00N 16°47' W 061°52'815.9
2018-Feb-14 04:30N 16°54' W 061°55'816.0
2018-Feb-14 04:00N 17°01' W 061°59'714.7
2018-Feb-14 03:30N 17°08' W 061°59'611.5
2018-Feb-14 03:00N 17°08' W 061°53'2 3.3
2018-Feb-14 02:29N 17°07' W 061°51'0 0.0
2018-Feb-14 01:59N 17°07' W 061°51'0 0.0
2018-Feb-14 01:29N 17°07' W 061°51'0 0.0
2018-Feb-14 00:59N 17°07' W 061°51'0 0.0
2018-Feb-14 00:29N 17°07' W 061°51'0 0.0
2018-Feb-13 23:59N 17°07' W 061°51'0 0.0
2018-Feb-13 23:29N 17°07' W 061°51'0 0.0
2018-Feb-13 22:59N 17°07' W 061°51'0 0.0
2018-Feb-13 22:29N 17°07' W 061°51'0 0.0
2018-Feb-13 21:59N 17°07' W 061°51'0 0.0
2018-Feb-13 21:29N 17°07' W 061°51'0 0.0
2018-Feb-13 20:59N 17°07' W 061°51'0 0.0
2018-Feb-13 20:26N 17°07' W 061°51'0 0.0
2018-Feb-13 19:59N 17°07' W 061°51'0 0.0
2018-Feb-13 19:29N 17°07' W 061°51'0 0.0
2018-Feb-13 18:59N 17°07' W 061°51'0 0.0
2018-Feb-13 18:29N 17°07' W 061°51'0 0.0
2018-Feb-13 17:59N 17°07' W 061°51'0 0.0
2018-Feb-13 17:29N 17°07' W 061°51'0 0.0
2018-Feb-13 16:59N 17°07' W 061°51'0 0.0
2018-Feb-13 16:29N 17°07' W 061°51'0 0.0
2018-Feb-13 15:59N 17°07' W 061°51'0 0.0
2018-Feb-13 15:29N 17°07' W 061°51'0 0.0
2018-Feb-13 14:59N 17°07' W 061°51'0 0.0
2018-Feb-13 14:29N 17°07' W 061°51'0 0.0
2018-Feb-13 13:59N 17°07' W 061°51'0 0.0
2018-Feb-13 13:29N 17°07' W 061°51'0 0.0
2018-Feb-13 12:59N 17°07' W 061°51'0 0.0
2018-Feb-13 12:29N 17°07' W 061°51'0 0.0
2018-Feb-13 11:59N 17°07' W 061°51'0 0.3
2018-Feb-13 11:30N 17°07' W 061°51'2 4.9
2018-Feb-13 11:00N 17°08' W 061°54'510.6
2018-Feb-13 10:30N 17°10' W 061°59'510.8
2018-Feb-13 10:00N 17°08' W 062°04'31 5.0
2018-Feb-13 03:54N 16°55' W 062°33'3 6.8
2018-Feb-13 03:29N 16°54' W 062°36'21 1.3
2018-Feb-12 10:40N 17°14' W 062°43'515.3
2018-Feb-12 10:19N 17°09' W 062°44'3016.7
2018-Feb-12 08:33N 16°42' W 062°32'116.5
2018-Feb-12 08:30N 16°41' W 062°32'916.4
2018-Feb-12 07:58N 16°33' W 062°28'14316.5
2018-Feb-11 23:19N 14°35' W 061°05'  

Dump ship's entire track history